Showing default

MEXSAT 3, 39035

Orbit data source: Space-Track

MEXSAT 3, 39035 is a payload satellite owned by AEMX (MX) in GEO that was launched on Wed, 19 Dec 2012 UTC via an ARIANE 5ECA launch vehicle from the French Guiana (FRGUI). Payload-class satellites include a variety of spacecraft equipped with specific instruments for various scientific and technological missions. These include communications satellites like Starlink; space stations such as the ISS; scientific satellites like the Hubble; Earth observation satellites from companies like Planet Labs, Umbra, and HawkEye 360; GPS; miniature CubeSats for education and research; and military/defense satellites.

Loading next visibility...
Identifier
39035, 2012-075B
Orbit
GEO
Country
Flag of MXMX / MEX
Related business
Manufacturer
OSC
Mission
Operational Civil Communications
Bus & Motor
GEOSTAR 2, IHI BT-4
Mass
2,934 kg wet, ~1,200 kg dry
Launch date (UTC)
2012-12-19 (13 years ago)
Launch vehicle
ARIANE 5ECA
Launch site
French Guiana (FRGUI)
Object type
Payload
Rocket body
Debris
Shape & HBR
Box + 2 Pan, 9.0 m
Radar Cross Section
25.773 m², Large (>1 m²)

Expand to show TLE details & history
Last TLE update: 9 hours ago

TLE from 9 hours ago
0 MEXSAT 3
1 39035U 12075B   25355.18712715 -.00000003  00000-0  00000+0 0  9990
2 39035   0.0198  77.6595 0001687 176.3530 148.5539  1.00271916  5261
Epoch: 2025-12-21T04:29Z
TLE epoch observation values (Epoch: 2025-12-21T04:29:27.785Z)
Latitude
0.00255°
Longitude
-114.80121°
Altitude
35,792.134 km
Speed
3.074 km/s
True Right ascension
02h 50m 16s
True Declination
0° 00' 09"
Sunlit
Object was in daylight at epoch
Visualization orbit readout
Latitude
Unknown
Longitude
Unknown
Altitude
Unknown
Speed
Unknown
Apparent Right ascension
Unknown
Apparent Declination
Unknown
Sunlit
N/A
Visualization observer readout
Local Sidereal Time
12:15:49
Azimuth
Unknown
Elevation
Unknown
Doppler factor
Unknown
Orbital elements
Apogee altitude
35,794.742 km
Perigee altitude
35,780.515 km
Semi-major axis
42,165.766 km
Eccentricity
0.00017
Inclination
0.0198°
RAAN
77.6595°
Arg. of periapsis
176.353°
True anomaly
148.56398°
Mean anomaly
148.5539°
Eccentric anomaly
148.55894°
Mean motion
0.25067 °/min
Orbital period
1,436.15 mins
BSTAR
0
Loading maneuver chart data...
Computing Atmospheric mass density...
Loading historical data...
Loading historical data...
Loading historical data...
Loading historical data...
Loading historical data...
Loading historical data...
Loading historical data...
Other satellites on launch #75 in the year 2012 (2012-12-19 UTC)

Documentation

Showing up to 5 results
|